KC5MUJ-1 Weather Reports


time (UTC)temp
C
wind
direction
speed
KPH
gust
KPH
rain 1hr
cm
rain 24hr
cm
rain mn
cm
humidity
%
barometer
mb
20220124101959 10 202 0.0 0.0 0.00 0.00 0.00 1016.9
20220124101459 10 202 0.0 0.0 0.00 0.00 0.00 1017.0
20220124100959 10 202 0.0 0.0 0.00 0.00 0.00 1017.0
20220124100500 10 202 0.0 0.0 0.00 0.00 0.00 1017.3
20220124100000 10 202 0.0 0.0 0.00 0.00 0.00 1017.3
20220124095500 10 202 0.0 0.0 0.00 0.00 0.00 1017.3
20220124094959 10 202 0.0 0.0 0.00 0.00 0.00 1017.3
20220124094501 10 202 0.0 0.0 0.00 0.00 0.00 1017.3
20220124094000 10 202 0.0 0.0 0.00 0.00 0.00 1017.2
20220124093501 10 202 0.0 0.0 0.00 0.00 0.00 1017.5
20220124092959 10 202 0.0 0.0 0.00 0.00 0.00 1017.5
20220124092500 10 202 0.0 0.0 0.00 0.00 0.00 1017.6
20220124092000 10 202 0.0 0.0 0.00 0.00 0.00 1017.8
20220124091501 10 202 0.0 0.0 0.00 0.00 0.00 1017.9
20220124090959 10 198 0.0 0.0 0.00 0.00 0.00 1017.8
20220124090459 10 198 0.0 0.0 0.00 0.00 0.00 1017.8
20220124090000 10 198 0.0 0.0 0.00 0.00 0.00 1017.9
20220124085500 10 198 0.0 0.0 0.00 0.00 0.00 1018.1
20220124085000 10 222 0.0 0.0 0.00 0.00 0.00 1018.3
20220124084500 10 221 0.0 0.0 0.00 0.00 0.00 1018.2
20220124084000 10 221 0.0 0.0 0.00 0.00 0.00 1018.1
20220124083459 10 221 0.0 0.0 0.00 0.00 0.00 1018.4
20220124083000 10 221 0.0 0.0 0.00 0.00 0.00 1018.5
20220124082500 10 221 0.0 0.0 0.00 0.00 0.00 1018.6
20220124081959 10 221 0.0 0.0 0.00 0.00 0.00 1018.7
20220124081500 10 221 0.0 0.0 0.00 0.00 0.00 1018.7
20220124080959 10 221 0.0 0.0 0.00 0.00 0.00 1018.6
20220124080459 10 221 0.0 0.0 0.00 0.00 0.00 1018.8
20220124080000 10 221 0.0 0.0 0.00 0.00 0.00 1018.9
20220124075459 10 221 0.0 0.0 0.00 0.00 0.00 1018.8
20220124074959 10 220 0.0 0.0 0.00 0.00 0.00 1018.8
20220124074459 10 220 0.0 0.0 0.00 0.00 0.00 1018.8
20220124074000 10 221 0.0 0.0 0.00 0.00 0.00 1018.8
20220124073459 10 219 0.0 0.0 0.00 0.00 0.00 1018.9
20220124073000 10 219 0.0 0.0 0.00 0.00 0.00 1019.0
20220124072501 10 219 0.0 0.0 0.00 0.00 0.00 1019.1
20220124072000 10 212 0.0 0.0 0.00 0.00 0.00 1019.2
20220124071459 10 212 0.0 0.0 0.00 0.00 0.00 1019.2
20220124071000 10 211 0.0 0.0 0.00 0.00 0.00 1019.2
20220124070500 10 211 0.0 0.0 0.00 0.00 0.00 1019.3
20220124070000 10 210 0.0 0.0 0.00 0.00 0.00 1019.4
20220124065500 11 209 0.0 0.0 0.00 0.00 0.00 1019.4
20220124064959 11 207 0.0 0.0 0.00 0.00 0.00 1019.4
20220124064459 11 203 0.0 0.0 0.00 0.00 0.00 1019.5
20220124064000 11 203 0.0 0.0 0.00 0.00 0.00 1019.6
20220124063500 11 210 0.0 0.0 0.00 0.00 0.00 1019.6
20220124063001 11 205 0.0 0.0 0.00 0.00 0.00 1019.7
20220124062501 11 204 0.0 0.0 0.00 0.00 0.00 1019.7
20220124062000 11 191 0.0 0.0 0.00 0.00 0.00 1019.6
20220124061501 11 189 0.0 0.0 0.00 0.00 0.00 1019.7
20220124061001 11 205 0.0 0.0 0.00 0.00 0.00 1019.6
20220124060502 11 204 0.0 0.0 0.00 0.00 0.00 1019.6
20220124060001 11 202 0.0 0.0 0.00 0.00 0.00 1019.4
20220124055502 11 202 0.0 0.0 0.00 0.00 0.00 1019.6
20220124055001 11 201 0.0 0.0 0.00 0.00 0.00 1019.9
20220124054500 11 201 0.0 0.0 0.00 0.00 0.00 1019.9
20220124054000 11 199 0.0 0.0 0.00 0.00 0.00 1019.9
20220124053502 11 200 0.0 0.0 0.00 0.00 0.00 1020.0
20220124053001 11 198 0.0 0.0 0.00 0.00 0.00 1020.0
20220124052501 11 198 0.0 0.0 0.00 0.00 0.00 1019.9
20220124052002 11 200 0.0 0.0 0.00 0.00 0.00 1019.8
20220124051500 11 200 0.0 0.0 0.00 0.00 0.00 1019.9
20220124051000 11 200 0.0 0.0 0.00 0.00 0.00 1020.1
20220124050501 11 198 0.0 0.0 0.00 0.00 0.00 1020.3
20220124050001 11 200 0.0 0.0 0.00 0.00 0.00 1020.3
20220124045501 11 200 0.0 0.0 0.00 0.00 0.00 1020.5
20220124045000 11 199 0.0 0.0 0.00 0.00 0.00 1020.3
20220124044500 11 199 0.0 0.0 0.00 0.00 0.00 1020.3
20220124044001 11 199 0.0 0.0 0.00 0.00 0.00 1020.3
20220124043501 11 200 0.0 0.0 0.00 0.00 0.00 1020.6
20220124043001 11 205 0.0 0.0 0.00 0.00 0.00 1020.7
20220124042500 11 204 0.0 0.0 0.00 0.00 0.00 1021.0
20220124042001 11 202 0.0 0.0 0.00 0.00 0.00 1020.9
20220124041500 11 209 0.0 0.0 0.00 0.00 0.00 1021.0
20220124041000 11 207 0.0 0.0 0.00 0.00 0.00 1021.0
20220124040501 11 207 0.0 0.0 0.00 0.00 0.00 1021.1
20220124040000 11 204 0.0 0.0 0.00 0.00 0.00 1020.9
20220124035500 11 204 0.0 0.0 0.00 0.00 0.00 1021.0
20220124035001 11 204 0.0 0.0 0.00 0.00 0.00 1021.3
20220124034500 11 204 0.0 0.0 0.00 0.00 0.00 1021.5
20220124034001 11 203 0.0 0.0 0.00 0.00 0.00 1021.5
20220124033502 11 203 0.0 0.0 0.00 0.00 0.00 1021.2
20220124033000 11 178 0.0 0.0 0.00 0.00 0.00 1021.3
20220124032501 11 177 0.0 0.0 0.00 0.00 0.00 1021.5
20220124032001 11 173 0.0 0.0 0.00 0.00 0.00 1021.6
20220124031501 11 219 0.0 0.0 0.00 0.00 0.00 1021.6
20220124031001 11 205 0.0 0.0 0.00 0.00 0.00 1021.8
20220124030500 11 208 0.0 0.0 0.00 0.00 0.00 1021.7
20220124030000 11 208 0.0 0.0 0.00 0.00 0.00 1021.7
20220124025501 12 209 0.0 0.0 0.00 0.00 0.00 1021.7
20220124025000 12 208 0.0 0.0 0.00 0.00 0.00 1021.5
20220124024501 12 208 0.0 0.0 0.00 0.00 0.00 1021.5
20220124024000 12 208 0.0 0.0 0.00 0.00 0.00 1021.7
20220124023501 12 207 0.0 0.0 0.00 0.00 0.00 1021.4
20220124023000 12 207 0.0 0.0 0.00 0.00 0.00 1021.3
20220124022501 12 192 0.0 0.0 0.00 0.00 0.00 1021.3
20220124022001 12 193 0.0 0.0 0.00 0.00 0.00 1021.3
20220124021500 12 193 0.0 0.0 0.00 0.00 0.00 1021.0
20220124021001 12 192 0.0 0.0 0.00 0.00 0.00 1021.0
20220124020501 12 192 0.0 0.0 0.00 0.00 0.00 1020.8
20220124020002 12 192 0.0 0.0 0.00 0.00 0.00 1020.9
20220124015500 12 192 0.0 0.0 0.00 0.00 0.00 1021.1
20220124015001 12 192 0.0 0.0 0.00 0.00 0.00 1020.9
20220124014500 12 192 0.0 0.0 0.00 0.00 0.00 1020.9
20220124014002 12 192 0.0 0.0 0.00 0.00 0.00 1020.8
20220124013501 12 192 0.0 0.0 0.00 0.00 0.00 1021.1
20220124013001 12 192 0.0 0.0 0.00 0.00 0.00 1021.1
20220124012501 12 190 0.0 0.0 0.00 0.00 0.00 1021.0
20220124012001 12 189 0.0 0.0 0.00 0.00 0.00 1020.9
20220124011501 12 189 0.0 0.0 0.00 0.00 0.00 1020.8
20220124011001 12 192 0.0 0.0 0.00 0.00 0.00 1020.8
20220124010500 12 192 0.0 0.0 0.00 0.00 0.00 1020.9
20220124010000 12 192 0.0 0.0 0.00 0.00 0.00 1020.8
20220124005500 12 192 0.0 0.0 0.00 0.00 0.00 1020.8
20220124005002 12 192 0.0 0.0 0.00 0.00 0.00 1020.5
20220124004501 12 189 0.0 0.0 0.00 0.00 0.00 1020.6
20220124004000 12 189 0.0 0.0 0.00 0.00 0.00 1020.8
20220124003504 12 189 0.0 0.0 0.00 0.00 0.00 1020.5
20220124003000 12 189 0.0 0.0 0.00 0.00 0.00 1020.5
20220124002500 12 189 0.0 0.0 0.00 0.00 0.00 1020.5
20220124002000 12 188 0.0 0.0 0.00 0.00 0.00 1020.8
20220124001501 12 188 0.0 0.0 0.00 0.00 0.00 1020.8
20220124001002 12 188 0.0 0.0 0.00 0.00 0.00 1020.9
20220124000501 12 188 0.0 0.0 0.00 0.00 0.00 1020.8
20220124000000 13 188 0.0 0.0 0.00 0.00 0.00 1020.6
20220123235500 13 188 0.0 0.0 0.00 0.00 0.00 1020.7
20220123235001 13 186 0.0 0.0 0.00 0.00 0.00 1020.8
20220123234501 13 165 0.0 0.0 0.00 0.00 0.00 1020.9
20220123234000 13 164 0.0 0.0 0.00 0.00 0.00 1020.6
20220123233501 13 163 0.0 0.0 0.00 0.00 0.00 1020.9
20220123233001 13 157 0.0 0.0 0.00 0.00 0.00 1020.8
20220123232500 13 157 0.0 0.0 0.00 0.00 0.00 1020.6
20220123232000 13 157 0.0 0.0 0.00 0.00 0.00 1020.6
20220123231501 13 156 0.0 0.0 0.00 0.00 0.00 1020.8
20220123231000 13 155 0.0 0.0 0.00 0.00 0.00 1020.9
20220123230501 13 155 0.0 0.0 0.00 0.00 0.00 1020.9
20220123230001 13 176 0.0 0.0 0.00 0.00 0.00 1021.1
20220123225502 13 175 0.0 0.0 0.00 0.00 0.00 1021.1
20220123225001 13 175 0.0 0.0 0.00 0.00 0.00 1020.9
20220123224501 13 172 0.0 0.0 0.00 0.00 0.00 1021.1
20220123224001 13 179 0.0 0.0 0.00 0.00 0.00 1021.1
20220123223501 13 171 0.0 0.0 0.00 0.00 0.00 1021.2
20220123223001 13 171 0.0 0.0 0.00 0.00 0.00 1021.3
20220123222501 13 212 0.0 0.0 0.00 0.00 0.00 1021.4
20220123222001 13 212 0.0 0.0 0.00 0.00 0.00 1021.4
20220123221502 13 211 0.0 0.0 0.00 0.00 0.00 1021.5
20220123221001 13 211 0.0 0.0 0.00 0.00 0.00 1021.6
20220123220500 13 211 0.0 0.0 0.00 0.00 0.00 1021.5
20220123220000 13 211 0.0 0.0 0.00 0.00 0.00 1021.4
20220123215501 13 211 0.0 0.0 0.00 0.00 0.00 1021.6
20220123215000 13 211 0.0 0.0 0.00 0.00 0.00 1021.7
20220123214501 13 210 0.0 0.0 0.00 0.00 0.00 1021.7
20220123214000 13 207 0.0 0.0 0.00 0.00 0.00 1021.7
20220123213501 13 207 0.0 0.0 0.00 0.00 0.00 1021.8
20220123213002 13 207 0.0 0.0 0.00 0.00 0.00 1022.0
20220123212500 13 207 0.0 0.0 0.00 0.00 0.00 1021.9
20220123212001 13 206 0.0 0.0 0.00 0.00 0.00 1022.1
20220123211501 14 205 0.0 0.0 0.00 0.00 0.00 1022.1
20220123211001 14 250 0.0 0.0 0.00 0.00 0.00 1022.2
20220123210501 14 250 0.0 0.0 0.00 0.00 0.00 1022.3
20220123210000 14 251 0.0 0.0 0.00 0.00 0.00 1022.4
20220123205502 14 260 0.0 0.0 0.00 0.00 0.00 1022.4
20220123205001 14 261 0.0 0.0 0.00 0.00 0.00 1022.6
20220123204501 14 261 0.0 0.0 0.00 0.00 0.00 1022.6
20220123204000 13 261 0.0 0.0 0.00 0.00 0.00 1022.5
20220123203501 13 261 0.0 0.0 0.00 0.00 0.00 1022.5
20220123203001 13 261 0.0 0.0 0.00 0.00 0.00 1022.4
20220123202501 13 248 0.0 0.0 0.00 0.00 0.00 1022.5
20220123202001 13 248 0.0 0.0 0.00 0.00 0.00 1022.7
20220123201501 13 248 0.0 0.0 0.00 0.00 0.00 1022.9
20220123201002 13 248 0.0 0.0 0.00 0.00 0.00 1022.9
20220123200500 13 248 0.0 0.0 0.00 0.00 0.00 1023.0
20220123200000 13 246 0.0 0.0 0.00 0.00 0.00 1023.1
20220123195501 13 257 0.0 0.0 0.00 0.00 0.00 1023.1
20220123195001 13 254 0.0 0.0 0.00 0.00 0.00 1023.4
20220123194501 13 252 0.0 0.0 0.00 0.00 0.00 1023.4
20220123194002 13 228 0.0 0.0 0.00 0.00 0.00 1023.5
20220123193502 13 262 0.0 0.0 0.00 0.00 0.00 1023.7
20220123193001 13 258 0.0 0.0 0.00 0.00 0.00 1023.9
20220123192500 13 256 0.0 0.0 0.00 0.00 0.00 1023.9
20220123192001 12 253 0.0 0.0 0.00 0.00 0.00 1024.0
20220123191501 12 246 0.0 0.0 0.00 0.00 0.00 1024.1
20220123191000 12 247 0.0 0.0 0.00 0.00 0.00 1024.2
20220123190501 12 228 0.0 0.0 0.00 0.00 0.00 1024.3
20220123190001 12 227 0.0 0.0 0.00 0.00 0.00 1024.5
20220123185501 12 227 0.0 0.0 0.00 0.00 0.00 1024.8
20220123185001 12 222 0.0 0.0 0.00 0.00 0.00 1024.9
20220123184501 12 218 0.0 0.0 0.00 0.00 0.00 1025.0
20220123184000 12 215 0.0 0.0 0.00 0.00 0.00 1025.2
20220123183501 12 214 0.0 0.0 0.00 0.00 0.00 1025.3
20220123183000 12 213 0.0 0.0 0.00 0.00 0.00 1025.4
20220123182500 11 211 0.0 0.0 0.00 0.00 0.00 1025.5
20220123182000 11 211 0.0 0.0 0.00 0.00 0.00 1025.6
20220123181501 11 211 0.0 0.0 0.00 0.00 0.00 1025.6
20220123181000 11 211 0.0 0.0 0.00 0.00 0.00 1025.8
20220123180500 11 226 0.0 0.0 0.00 0.00 0.00 1025.8
20220123175959 11 221 0.0 0.0 0.00 0.00 0.00 1025.9
20220123175500 11 218 0.0 0.0 0.00 0.00 0.00 1026.0
20220123175000 11 217 0.0 0.0 0.00 0.00 0.00 1026.2
20220123174459 11 202 0.0 0.0 0.00 0.00 0.00 1026.2
20220123174000 11 219 0.0 0.0 0.00 0.00 0.00 1026.3
20220123173500 11 219 0.0 0.0 0.00 0.00 0.00 1026.4
20220123173000 11 219 0.0 0.0 0.00 0.00 0.00 1026.5
20220123172500 11 218 0.0 0.0 0.00 0.00 0.00 1026.6
20220123172000 10 218 0.0 0.0 0.00 0.00 0.00 1026.7
20220123171501 10 218 0.0 0.0 0.00 0.00 0.00 1026.6
20220123170959 10 219 0.0 0.0 0.00 0.00 0.00 1026.7
20220123170459 10 219 0.0 0.0 0.00 0.00 0.00 1026.6
20220123170000 10 219 0.0 0.0 0.00 0.00 0.00 1026.6
20220123165500 10 225 0.0 0.0 0.00 0.00 0.00 1026.7
20220123165000 10 225 0.0 0.0 0.00 0.00 0.00 1027.0
20220123164459 10 225 0.0 0.0 0.00 0.00 0.00 1027.1
20220123164000 10 225 0.0 0.0 0.00 0.00 0.00 1027.2
20220123163459 9 225 0.0 0.0 0.00 0.00 0.00 1027.3
20220123163000 9 225 0.0 0.0 0.00 0.00 0.00 1027.5
20220123162459 9 225 0.0 0.0 0.00 0.00 0.00 1027.4
20220123162000 8 225 0.0 0.0 0.00 0.00 0.00 1027.5
20220123161459 8 225 0.0 0.0 0.00 0.00 0.00 1027.4
20220123160959 8 224 0.0 0.0 0.00 0.00 0.00 1027.3
20220123160501 8 224 0.0 0.0 0.00 0.00 0.00 1027.3
20220123155959 8 224 0.0 0.0 0.00 0.00 0.00 1027.4
20220123155501 8 224 0.0 0.0 0.00 0.00 0.00 1027.3
20220123154959 8 224 0.0 0.0 0.00 0.00 0.00 1027.3
20220123154459 8 224 0.0 0.0 0.00 0.00 0.00 1027.2
20220123154001 8 59 0.0 0.0 0.00 0.00 0.00 1027.2
20220123153459 8 59 0.0 0.0 0.00 0.00 0.00 1027.2
20220123153001 8 59 0.0 0.0 0.00 0.00 0.00 1027.2
20220123152500 7 59 0.0 0.0 0.00 0.00 0.00 1027.2
20220123152000 7 57 0.0 0.0 0.00 0.00 0.00 1027.2
20220123151459 7 57 0.0 0.0 0.00 0.00 0.00 1027.3
20220123151001 7 57 0.0 0.0 0.00 0.00 0.00 1027.2
20220123150502 7 58 0.0 0.0 0.00 0.00 0.00 1027.3
20220123150003 7 58 0.0 0.0 0.00 0.00 0.00 1027.2
20220123145500 7 58 0.0 0.0 0.00 0.00 0.00 1027.3
20220123145000 7 58 0.0 0.0 0.00 0.00 0.00 1027.3
20220123144500 7 58 0.0 0.0 0.00 0.00 0.00 1027.2
20220123144001 7 58 0.0 0.0 0.00 0.00 0.00 1027.1
20220123143459 7 58 0.0 0.0 0.00 0.00 0.00 1027.4
20220123143000 7 58 0.0 0.0 0.00 0.00 0.00 1027.4
20220123142459 6 58 0.0 0.0 0.00 0.00 0.00 1027.5
20220123142000 6 58 0.0 0.0 0.00 0.00 0.00 1027.4
20220123141459 6 58 0.0 0.0 0.00 0.00 0.00 1027.7
20220123141000 6 58 0.0 0.0 0.00 0.00 0.00 1027.5
20220123140459 6 58 0.0 0.0 0.00 0.00 0.00 1027.5
20220123140001 6 58 0.0 0.0 0.00 0.00 0.00 1027.6
20220123135500 6 59 0.0 0.0 0.00 0.00 0.00 1027.5
20220123135000 6 58 0.0 0.0 0.00 0.00 0.00 1027.3
20220123134459 6 58 0.0 0.0 0.00 0.00 0.00 1027.2
20220123134000 6 58 0.0 0.0 0.00 0.00 0.00 1027.2
20220123133459 6 58 0.0 0.0 0.00 0.00 0.00 1027.1
20220123133000 6 58 0.0 0.0 0.00 0.00 0.00 1027.4
20220123132500 6 58 0.0 0.0 0.00 0.00 0.00 1027.3
20220123132000 6 58 0.0 0.0 0.00 0.00 0.00 1027.3
20220123131459 6 58 0.0 0.0 0.00 0.00 0.00 1027.1
20220123130959 6 58 0.0 0.0 0.00 0.00 0.00 1027.1
20220123130500 6 58 0.0 0.0 0.00 0.00 0.00 1027.0
20220123130000 6 58 0.0 0.0 0.00 0.00 0.00 1027.0
20220123125500 6 58 0.0 0.0 0.00 0.00 0.00 1027.0
20220123125001 6 58 0.0 0.0 0.00 0.00 0.00 1027.0
20220123124459 6 58 0.0 0.0 0.00 0.00 0.00 1027.0
20220123123959 6 58 0.0 0.0 0.00 0.00 0.00 1027.0
20220123123500 6 58 0.0 0.0 0.00 0.00 0.00 1027.1
20220123123001 6 58 0.0 0.0 0.00 0.00 0.00 1027.0
20220123122500 6 58 0.0 0.0 0.00 0.00 0.00 1027.0
20220123122001 6 58 0.0 0.0 0.00 0.00 0.00 1026.8
20220123121500 6 58 0.0 0.0 0.00 0.00 0.00 1027.0
20220123121001 6 58 0.0 0.0 0.00 0.00 0.00 1026.9
20220123120459 6 58 0.0 0.0 0.00 0.00 0.00 1027.0
20220123120000 6 58 0.0 0.0 0.00 0.00 0.00 1027.0
20220123115500 6 58 0.0 0.0 0.00 0.00 0.00 1027.2
20220123115000 6 58 0.0 0.0 0.00 0.00 0.00 1027.1
20220123114500 6 58 0.0 0.0 0.00 0.00 0.00 1027.0
20220123113959 6 58 0.0 0.0 0.00 0.00 0.00 1027.0
20220123113459 6 58 0.0 0.0 0.00 0.00 0.00 1027.0
20220123113000 6 58 0.0 0.0 0.00 0.00 0.00 1027.1
20220123112500 6 58 0.0 0.0 0.00 0.00 0.00 1027.2
20220123112000 6 58 0.0 0.0 0.00 0.00 0.00 1027.1
20220123111500 6 58 0.0 0.0 0.00 0.00 0.00 1027.1
20220123111000 6 58 0.0 0.0 0.00 0.00 0.00 1027.1
20220123110500 6 58 0.0 0.0 0.00 0.00 0.00 1027.3
20220123110001 6 58 0.0 0.0 0.00 0.00 0.00 1027.2
20220123105500 6 58 0.0 0.0 0.00 0.00 0.00 1027.5
20220123105000 6 58 0.0 0.0 0.00 0.00 0.00 1027.3
20220123104500 6 58 0.0 0.0 0.00 0.00 0.00 1027.4
20220123104000 6 58 0.0 0.0 0.00 0.00 0.00 1027.4
20220123103459 6 58 0.0 0.0 0.00 0.00 0.00 1027.4
20220123102959 6 58 0.0 0.0 0.00 0.00 0.00 1027.4
20220123102500 6 58 0.0 0.0 0.00 0.00 0.00 1027.3